Location: Cella
(44.7333°N, 10.5667°E)
Time: 12:41:58
(UTC+00:00)

CSL-04 Debris - Pass Details

Date: 03 March 2021
Orbit: 826 x 848 km, 98.9° (Epoch: 18 April)

Event Time Altitude Azimuth Distance (km) Brightness Sun altitude
Rises 18:22:16 0° 165° (SSE) 3,369 7.1 -13.9°
Reaches altitude 10° 18:24:36 10° 166° (SSE) 2,442 6.4 -14.3°
Maximum altitude 18:30:02 86° 254° (WSW) 849 4.2 -15.3°
Drops below altitude 10° 18:35:32 10° 345° (NNW) 2,474 6.9 -16.3°
Sets 18:37:55 0° 346° (NNW) 3,416 7.7 -16.7°
